Weather History for Tarboro, NC

Change the Weather History Date:

Saturday, May 19, 2012

  Actual Average Record
Temperature  
Mean Temperature 64 °F -  
Max Temperature 91 °F 84 °F 94 °F (1977)
Min Temperature 50 °F 56 °F 43 °F (1973)
Degree Days  
Heating Degree Days 1    
Growing Degree Days 14 (Base 50)    
Moisture  
Dew Point 46 °F    
Average Humidity 59    
Maximum Humidity 92    
Minimum Humidity 22    
Precipitation  
Precipitation 0.00 in - - ()
Sea Level Pressure  
Sea Level Pressure 30.09 in    
Wind  
Wind Speed 5 mph (NNE)    
Max Wind Speed 14 mph    
Max Gust Speed 20 mph    
Visibility 10 miles    
Events      
Averages and records for this station are not official NWS values.
T = Trace of Precipitation, MM = Missing Value Source: NWS Daily Summary

Daily Weather History Graph

Daily Weather History Graph

Search for Another Location

Airport:

Trip Planner

Search our weather history database for the weather conditions in past years. The results will help you decide how hot, cold, wet, or windy it might be!

Date:

Astronomy

May. 19, 2012 Rise Set
Actual Time 6:01 AM EDT 8:12 PM EDT
Civil Twilight 5:32 AM EDT 8:41 PM EDT
Nautical Twilight 4:57 AM EDT 9:16 PM EDT
Astronomical Twilight 4:19 AM EDT 9:55 PM EDT
Moon 5:01 AM EDT 7:15 PM EDT
Length of Visible Light 15h 08m
Length of Day
14h 11m
Waning Crescent, 2% of the Moon is Illuminated
May 19
Waning Crescent
May 20
New
May 28
First Quarter
Jun 4
Full
Jun 11
Last Quarter

Hourly Weather History & Observations

Time (EDT) Temp. Dew Point Humidity Pressure Visibility Wind Dir Wind Speed Gust Speed Precip Events Conditions
12:15 AM 59.9 °F 47.3 °F 63% 30.10 in 10.0 mi NNE 4.6 mph - N/A   Clear
12:35 AM 59.4 °F 47.7 °F 65% 30.10 in 10.0 mi NNE 3.5 mph - N/A   Clear
12:55 AM 58.6 °F 47.8 °F 67% 30.10 in 10.0 mi NNE 4.6 mph - N/A   Clear
1:15 AM 58.5 °F 47.3 °F 66% 30.09 in 10.0 mi NNE 3.5 mph - N/A   Clear
1:35 AM 58.3 °F 47.7 °F 68% 30.09 in 10.0 mi Calm Calm - N/A   Clear
1:55 AM 57.4 °F 48.2 °F 71% 30.09 in 10.0 mi North 3.5 mph - N/A   Clear
2:15 AM 56.8 °F 47.8 °F 72% 30.09 in 10.0 mi Calm Calm - N/A   Clear
2:35 AM 56.8 °F 47.3 °F 70% 30.08 in 10.0 mi Calm Calm - N/A   Clear
2:55 AM 55.2 °F 47.1 °F 74% 30.08 in 10.0 mi Calm Calm - N/A   Clear
3:15 AM 52.7 °F 47.7 °F 83% 30.08 in 10.0 mi Calm Calm - N/A   Clear
3:35 AM 51.3 °F 47.5 °F 87% 30.08 in 10.0 mi Calm Calm - N/A   Clear
3:55 AM 50.2 °F 46.8 °F 88% 30.08 in 10.0 mi Calm Calm - N/A   Clear
4:15 AM 51.6 °F 46.9 °F 84% 30.08 in 10.0 mi NNW 3.5 mph - N/A   Clear
4:35 AM 52.0 °F 46.8 °F 82% 30.07 in 10.0 mi North 4.6 mph - N/A   Clear
4:55 AM 51.8 °F 46.6 °F 82% 30.07 in 10.0 mi North 4.6 mph - N/A   Clear
5:15 AM 51.3 °F 46.4 °F 83% 30.07 in 10.0 mi North 3.5 mph - N/A   Clear
5:35 AM 50.9 °F 46.0 °F 83% 30.07 in 10.0 mi North 4.6 mph - N/A   Clear
5:55 AM 50.9 °F 45.9 °F 83% 30.08 in 10.0 mi North 3.5 mph - N/A   Clear
6:15 AM 50.9 °F 45.9 °F 83% 30.08 in 10.0 mi Calm Calm - N/A   Clear
6:35 AM 51.1 °F 45.9 °F 82% 30.08 in 10.0 mi Calm Calm - N/A   Clear
6:55 AM 51.6 °F 46.4 °F 82% 30.09 in 10.0 mi Calm Calm - N/A   Clear
7:15 AM 52.3 °F 46.9 °F 82% 30.10 in 10.0 mi North 4.6 mph - N/A   Clear
7:35 AM 53.2 °F 47.5 °F 81% 30.10 in 10.0 mi North 6.9 mph - N/A   Clear
7:55 AM 54.5 °F 47.5 °F 77% 30.10 in 10.0 mi North 5.8 mph - N/A   Clear
8:15 AM 56.5 °F 48.2 °F 74% 30.11 in 10.0 mi North 8.1 mph - N/A   Clear
8:35 AM 58.3 °F 48.0 °F 69% 30.11 in 10.0 mi North 8.1 mph - N/A   Clear
8:55 AM 60.3 °F 47.8 °F 64% 30.12 in 10.0 mi NNE 8.1 mph - N/A   Clear
9:15 AM 62.2 °F 47.1 °F 58% 30.11 in 10.0 mi NNE 10.4 mph 19.6 mph N/A   Clear
9:35 AM 63.9 °F 46.9 °F 54% 30.11 in 10.0 mi NNE 9.2 mph 16.1 mph N/A   Clear
9:55 AM 65.1 °F 46.6 °F 51% 30.12 in 10.0 mi NNE 9.2 mph - N/A   Clear
10:15 AM 66.7 °F 46.9 °F 49% 30.12 in 10.0 mi NNE 6.9 mph - N/A   Clear
10:35 AM 67.8 °F 45.5 °F 45% 30.13 in 10.0 mi NE 4.6 mph 9.2 mph N/A   Clear
10:55 AM 69.3 °F 46.2 °F 44% 30.13 in 10.0 mi North 5.8 mph - N/A   Clear
11:15 AM 70.3 °F 44.1 °F 39% 30.13 in 10.0 mi NNE 8.1 mph - N/A   Clear
11:35 AM 71.2 °F 43.7 °F 37% 30.13 in 10.0 mi NNE 8.1 mph - N/A   Clear
11:55 AM 72.0 °F 44.2 °F 37% 30.12 in 10.0 mi NNE 8.1 mph - N/A   Clear
12:15 PM 72.9 °F 43.2 °F 34% 30.12 in 10.0 mi NE 12.7 mph - N/A   Clear
12:35 PM 73.4 °F 42.6 °F 33% 30.12 in 10.0 mi North 12.7 mph 17.3 mph N/A   Clear
12:55 PM 73.8 °F 41.7 °F 32% 30.12 in 10.0 mi NNE 12.7 mph 18.4 mph N/A   Clear
1:15 PM 74.5 °F 42.1 °F 31% 30.11 in 10.0 mi NNE 12.7 mph 16.1 mph N/A   Clear
1:35 PM 75.2 °F 42.8 °F 31% 30.10 in 10.0 mi NE 6.9 mph - N/A   Clear
1:55 PM 75.6 °F 42.3 °F 30% 30.10 in 10.0 mi NNE 10.4 mph 17.3 mph N/A   Clear
2:15 PM 76.1 °F 42.3 °F 30% 30.10 in 5.0 mi NE 6.9 mph - N/A   Haze
2:35 PM 76.6 °F 41.7 °F 29% 30.10 in 10.0 mi NE 8.1 mph 17.3 mph N/A   Clear
2:55 PM 76.6 °F 41.2 °F 28% 30.09 in 10.0 mi NNE 6.9 mph - N/A   Clear
3:15 PM 77.2 °F 41.2 °F 28% 30.08 in 2.0 mi NNE 6.9 mph - N/A   Haze
3:35 PM 77.9 °F 40.3 °F 26% 30.08 in 10.0 mi NE 11.5 mph - N/A   Clear
3:55 PM 78.4 °F 40.5 °F 26% 30.07 in 10.0 mi North 9.2 mph - N/A   Clear
4:15 PM 78.3 °F 41.0 °F 26% 30.07 in 5.0 mi NNE 6.9 mph 17.3 mph N/A   Haze
4:35 PM 78.4 °F 39.7 °F 25% 30.07 in 10.0 mi NNE 13.8 mph 19.6 mph N/A   Clear
4:55 PM 78.4 °F 37.0 °F 22% 30.07 in 10.0 mi ENE 13.8 mph - N/A   Clear
5:15 PM 77.2 °F 37.6 °F 24% 30.07 in 10.0 mi NE 10.4 mph - N/A   Clear
5:35 PM 76.5 °F 38.1 °F 25% 30.07 in 10.0 mi NNE 8.1 mph - N/A   Clear
5:55 PM 76.3 °F 39.0 °F 26% 30.06 in 10.0 mi NNE 10.4 mph 16.1 mph N/A   Clear
6:15 PM 76.1 °F 39.7 °F 27% 30.06 in 10.0 mi NE 9.2 mph - N/A   Clear
6:35 PM 75.0 °F 39.0 °F 27% 30.05 in 10.0 mi NE 10.4 mph - N/A   Clear
6:55 PM 73.2 °F 40.1 °F 30% 30.06 in 10.0 mi ENE 4.6 mph - N/A   Clear
7:15 PM 72.0 °F 42.6 °F 35% 30.06 in 10.0 mi ENE 4.6 mph - N/A   Clear
7:35 PM 70.2 °F 46.8 °F 43% 30.06 in 10.0 mi Calm Calm - N/A   Clear
7:55 PM 67.6 °F 48.9 °F 51% 30.06 in 10.0 mi Calm Calm - N/A   Clear
8:15 PM 63.9 °F 53.6 °F 69% 30.07 in 10.0 mi Calm Calm - N/A   Clear
8:35 PM 62.1 °F 54.9 °F 77% 30.07 in 10.0 mi Calm Calm - N/A   Clear
8:55 PM 60.4 °F 54.5 °F 81% 30.08 in 10.0 mi Calm Calm - N/A   Clear
9:15 PM 59.0 °F 54.1 °F 84% 30.09 in 10.0 mi Calm Calm - N/A   Clear
9:35 PM 57.7 °F 54.0 °F 87% 30.09 in 10.0 mi Calm Calm - N/A   Clear
9:55 PM 57.4 °F 54.0 °F 88% 30.10 in 10.0 mi Calm Calm - N/A   Clear
10:15 PM 56.5 °F 53.2 °F 89% 30.10 in 10.0 mi Calm Calm - N/A   Clear
10:35 PM 56.1 °F 52.9 °F 89% 30.11 in 10.0 mi Calm Calm - N/A   Clear
10:55 PM 55.4 °F 52.2 °F 89% 30.11 in 10.0 mi Calm Calm - N/A   Clear
11:15 PM 54.9 °F 52.3 °F 91% 30.11 in 10.0 mi Calm Calm - N/A   Clear
11:35 PM 54.5 °F 52.3 °F 92% 30.11 in 10.0 mi Calm Calm - N/A   Clear
11:55 PM 54.1 °F 51.4 °F 91% 30.10 in 10.0 mi Calm Calm - N/A   Clear